Theta_e
308 300 298 298 300 303 303 303 303 304 302 301 300 299 298 298 299 302 303 300 301 298 298 300 300 300 301 302 304 300 300 300 300 299 300 300 299 298 298 298 298 297 296 298 298 298 299 300 300 300 301 301 301 301 302 302 302 303 304 304 303 304 305 305 304 302 301 298 297 297 296 295 296 296 296 296 297 297 297 298 298 298 298 299 299 300
303 299 300 303 304 305 305 305 304 303 301 300 299 298 298 299 297 301 302 299 301 297 298 301 300 300 300 302 304 301 300 299 299 299 299 299 299 299 298 297 297 296 298 298 297 297 298 299 300 300 300 300 300 299 301 301 302 303 303 303 302 303 303 302 301 300 299 298 297 295 295 295 295 295 295 294 295 295 296 296 296 297 297 297 297 298
298 297 302 305 307 304 302 302 302 301 299 300 298 298 297 298 301 302 303 300 299 297 297 300 297 298 301 303 303 300 300 301 301 300 300 299 298 298 297 297 296 296 296 296 296 297 298 299 299 299 299 298 298 299 300 301 302 302 302 301 300 300 300 300 300 299 298 298 298 297 296 295 294 295 295 295 295 295 294 295 295 295 295 296 295 296
296 300 303 306 304 302 300 301 300 300 300 298 298 295 294 300 298 295 299 298 298 297 297 298 297 298 302 304 301 300 299 299 299 298 298 299 298 297 297 297 296 296 296 295 296 295 296 297 298 298 298 298 298 299 299 300 300 301 300 300 300 299 298 298 298 298 297 297 297 297 296 296 295 293 294 294 294 294 293 293 294 294 294 294 294 295
300 302 305 305 303 301 300 300 298 298 297 299 299 298 297 298 299 298 298 298 299 300 299 297 295 296 299 299 296 297 297 296 296 296 296 297 298 297 297 296 296 296 296 295 295 295 296 296 296 296 297 298 297 297 297 298 299 299 300 300 299 298 298 297 297 297 297 297 296 296 296 295 294 294 293 292 291 291 291 292 292 292 293 293 293 294
301 303 304 301 301 300 300 298 298 299 296 298 301 299 299 300 299 300 300 297 296 296 297 297 290 293 300 300 300 296 295 294 295 295 295 295 295 295 294 295 295 295 296 296 295 295 295 295 295 296 296 296 296 296 296 297 299 299 299 299 299 300 299 298 299 299 299 297 296 295 294 292 292 290 291 289 289 290 290 290 292 293 293 293 293 293
301 302 303 301 300 300 299 299 301 300 297 296 298 302 301 299 299 299 298 295 291 290 295 296 290 289 298 297 298 296 295 295 294 295 295 294 294 295 295 295 294 294 294 294 294 294 294 294 295 295 295 295 295 295 296 297 297 298 298 298 298 298 297 298 298 299 299 298 297 295 294 293 291 290 290 291 291 291 291 291 290 291 292 292 292 292
300 299 300 302 300 299 298 296 301 301 297 295 299 301 300 299 298 298 297 296 294 299 298 295 295 289 289 296 302 299 297 295 293 294 294 294 294 294 295 295 295 295 294 294 294 294 294 294 294 293 294 294 294 294 295 296 296 296 296 297 296 296 296 297 297 297 297 295 295 294 292 292 291 290 290 291 291 292 292 291 290 290 291 292 292 292
300 298 299 299 299 298 297 300 303 303 298 298 298 300 298 298 298 298 297 295 295 293 289 294 296 289 289 296 299 298 295 295 294 294 294 294 295 295 295 294 294 294 295 294 293 293 293 292 292 293 292 293 293 294 294 294 295 295 295 295 295 295 295 296 296 296 295 295 294 293 292 291 292 291 291 292 292 291 292 291 291 290 290 290 291 291
299 300 301 301 299 296 301 298 301 302 297 298 299 300 299 299 297 298 295 294 294 290 286 292 295 288 289 297 296 296 295 296 297 296 295 295 295 294 294 294 294 294 294 294 294 293 292 292 292 292 292 292 292 293 294 294 294 295 295 294 294 294 294 295 295 295 294 294 294 293 292 292 291 292 292 292 291 291 291 290 290 290 290 290 289 290
297 298 298 300 299 301 297 296 297 300 299 300 300 298 297 297 296 295 295 294 290 285 287 294 296 292 286 295 296 296 297 297 297 296 296 296 295 295 294 294 293 293 292 292 292 292 291 291 291 291 291 291 292 292 293 293 294 294 294 294 293 293 294 294 294 295 294 294 294 293 293 292 292 292 292 291 291 291 291 290 289 289 289 289 288 289
297 297 298 300 299 298 300 294 296 297 299 299 296 295 295 292 294 292 290 292 285 285 289 290 294 295 284 291 297 298 298 298 298 296 294 294 294 294 294 293 293 293 292 292 291 290 290 290 290 290 290 290 291 292 292 293 293 293 293 293 292 293 293 294 294 294 294 294 294 294 294 293 293 292 292 291 290 290 290 290 289 289 289 288 288 288
294 296 300 298 300 299 297 296 294 297 296 298 296 294 289 287 286 284 287 283 284 285 287 290 291 288 288 294 297 296 297 297 299 298 296 295 294 293 293 293 293 293 292 291 291 290 290 289 289 289 289 289 290 290 291 292 292 292 292 292 291 291 293 293 294 293 294 294 293 293 293 293 293 292 292 291 290 290 290 289 289 288 287 287 286 286
294 299 298 298 297 299 300 293 291 290 293 294 293 291 288 285 284 281 284 287 287 285 288 289 292 286 293 295 300 298 297 298 298 298 299 297 295 294 293 293 292 292 292 291 291 290 289 289 289 289 288 289 289 290 291 291 292 292 292 292 291 291 292 293 293 293 293 293 293 293 292 292 292 291 291 290 290 289 289 289 288 287 287 286 285 285
288 287 294 296 293 300 299 299 297 295 293 294 298 295 290 289 286 282 285 282 284 286 284 289 285 285 285 291 293 294 293 294 294 296 297 298 297 296 294 293 292 291 291 291 290 289 289 289 288 288 288 289 289 290 291 291 291 292 291 291 291 291 292 292 292 293 292 292 292 292 292 292 292 291 290 290 290 289 288 288 288 287 286 286 285 285
293 293 297 301 299 300 297 302 302 299 295 296 298 298 292 289 295 287 286 286 285 285 283 283 285 291 292 294 294 293 293 292 293 294 295 296 297 296 293 292 292 292 292 291 291 290 290 289 289 289 289 290 290 290 291 291 292 292 291 291 291 291 291 292 292 292 292 292 292 292 291 291 290 290 289 289 289 288 288 287 286 286 286 286 285 285
293 291 294 297 298 298 299 300 299 302 288 294 294 289 292 298 295 289 286 286 285 285 283 289 287 292 296 295 294 293 293 292 292 293 293 294 295 295 293 293 293 293 292 292 291 291 290 290 290 289 289 289 290 290 291 291 292 292 291 291 291 291 292 292 292 292 291 291 291 290 290 290 289 289 288 287 287 286 287 287 286 285 285 285 285 285
290 291 292 294 291 294 294 297 299 298 300 295 288 294 298 300 298 291 285 286 285 282 284 288 285 288 288 286 294 293 293 293 292 293 293 294 295 293 294 293 293 293 293 293 292 292 291 290 289 289 290 290 290 290 291 291 292 292 292 291 291 291 291 291 291 291 291 290 290 290 290 289 288 287 287 286 286 286 286 286 286 286 285 284 285 285
299 289 291 293 294 294 295 297 296 298 298 295 294 302 292 287 285 291 287 280 281 281 283 287 288 289 290 290 290 292 293 294 293 293 293 293 294 294 294 294 294 294 293 292 292 292 291 290 289 289 289 290 290 290 291 292 292 292 292 292 291 291 291 291 291 291 291 290 290 289 288 288 287 288 287 287 287 287 286 285 285 284 284 284 284 283
298 289 289 292 293 294 294 295 287 291 296 297 298 295 297 292 289 287 287 288 287 283 283 284 287 285 293 294 293 294 295 297 296 293 292 294 294 295 295 295 294 293 293 293 292 292 291 290 289 289 288 288 289 290 291 291 291 291 291 291 291 291 291 291 290 290 289 290 289 288 288 288 288 287 287 287 286 285 285 284 284 283 283 283 283 282
293 296 287 289 294 294 287 292 290 292 289 290 290 290 292 290 292 292 293 288 286 284 284 283 282 287 295 298 296 297 297 298 297 295 295 295 295 296 297 296 295 294 293 293 293 292 291 290 289 289 289 289 290 290 290 291 290 291 291 291 291 290 290 290 290 290 289 289 288 287 286 286 286 286 286 285 285 283 283 283 283 282 282 282 281 281
291 292 288 287 288 287 292 297 295 297 296 293 292 290 292 289 287 284 283 292 288 286 283 283 281 289 295 296 298 298 299 299 300 299 298 297 297 297 297 298 297 295 294 294 294 293 291 290 288 288 288 289 289 289 289 290 290 290 290 291 290 290 290 289 289 289 288 288 287 286 286 285 285 285 284 284 283 283 282 282 281 281 281 280 280 280
298 296 291 285 289 290 294 293 294 293 293 296 295 293 295 293 292 288 282 285 286 287 287 286 283 286 295 296 295 293 292 293 298 300 298 299 299 298 298 298 298 296 295 295 294 293 291 289 288 287 287 287 288 288 288 289 289 290 290 290 290 290 290 290 289 289 288 287 286 285 285 284 284 284 283 282 282 281 281 281 280 280 280 280 279 279
294 289 288 288 291 291 292 295 294 293 295 293 293 295 294 290 291 290 289 289 287 286 284 285 281 286 292 290 289 288 287 288 292 293 297 296 296 296 296 297 297 296 296 295 293 292 290 289 288 287 287 287 287 287 288 288 289 289 289 289 289 289 289 289 288 287 286 286 284 284 283 283 283 282 282 281 281 280 280 280 279 279 279 279 278 277
289 290 290 286 285 286 287 290 290 292 293 290 291 293 294 294 295 292 289 289 285 286 286 284 279 286 292 291 292 293 291 291 294 294 294 295 296 296 296 296 296 296 294 292 291 290 289 288 287 287 287 287 287 287 287 288 288 288 288 289 289 289 289 288 287 286 285 285 283 283 282 281 282 281 281 280 280 279 278 278 278 278 277 277 277 277
291 291 289 284 281 278 278 278 281 284 286 290 289 290 293 293 292 289 285 287 283 286 286 284 284 290 292 291 293 292 290 293 295 295 295 296 296 295 296 296 295 295 293 292 291 290 288 288 288 287 287 287 286 287 287 287 287 287 287 288 288 288 288 287 286 285 283 283 282 282 281 281 280 279 279 278 277 277 277 277 277 276 277 276 276 276
289 293 291 289 287 285 287 287 290 292 289 286 288 290 291 293 294 292 289 286 283 286 285 287 288 289 291 290 292 294 289 293 293 293 292 293 294 295 295 296 295 295 294 292 291 291 290 289 288 287 287 287 286 286 287 286 286 286 287 287 288 288 286 285 284 283 281 281 280 279 279 279 279 278 278 277 277 277 277 276 276 276 276 276 275 275
289 288 289 290 289 291 290 290 292 294 290 290 289 289 291 291 290 288 286 284 289 286 282 289 291 287 289 293 291 293 293 294 295 296 294 291 293 294 295 295 294 294 294 293 292 290 289 289 288 287 287 286 285 285 285 286 286 286 287 287 287 286 284 283 281 281 280 279 278 278 278 278 279 278 278 277 277 276 276 276 275 275 275 275 274 274
289 286 289 290 288 291 289 289 291 292 293 292 292 291 290 291 290 286 287 289 291 286 284 289 291 288 291 293 295 291 295 295 295 295 296 295 295 294 295 294 293 293 293 292 291 291 290 289 289 288 286 286 285 284 285 285 286 287 287 287 286 284 282 281 280 279 279 279 278 278 278 279 278 278 277 277 276 276 275 275 275 274 274 274 274 274
290 288 290 291 288 290 290 288 290 290 290 291 291 291 292 291 290 289 289 290 290 289 290 290 290 290 292 294 293 295 296 296 297 298 297 295 295 295 295 293 293 293 292 291 291 290 290 290 289 288 287 285 285 284 285 285 286 287 286 284 284 283 282 280 279 279 279 279 279 279 278 278 278 277 276 276 275 275 275 274 274 274 273 273 273 273
290 287 289 289 287 286 288 289 290 290 289 287 290 291 291 291 291 291 289 290 290 289 290 289 288 288 293 296 295 297 293 297 296 295 295 296 296 295 294 293 293 293 293 293 292 291 291 290 289 288 287 285 285 285 285 286 287 286 285 284 283 283 282 281 279 279 279 279 279 279 278 277 277 276 276 275 275 274 274 274 273 273 273 272 272 272
289 287 288 287 285 284 285 286 286 286 286 285 286 288 288 288 287 288 287 290 287 286 288 287 285 286 292 294 295 296 296 295 294 295 295 295 295 294 293 293 293 293 293 293 293 292 291 289 289 288 287 286 285 285 285 286 287 285 284 284 282 282 281 281 280 279 279 279 278 278 277 277 276 276 275 275 274 274 273 273 272 272 272 271 271 271
288 287 285 286 283 283 284 286 284 284 284 281 282 286 289 289 289 290 291 291 290 290 286 284 285 290 292 294 292 292 294 294 294 294 294 295 295 294 293 293 294 294 294 294 294 292 291 290 289 288 288 288 287 286 286 287 286 285 285 283 282 280 280 280 280 279 279 278 277 277 277 277 276 276 275 274 273 273 272 271 271 271 270 270 271 271
287 287 286 287 281 281 282 284 284 281 275 278 288 292 291 288 288 287 287 289 291 291 289 290 290 291 291 292 291 292 292 293 294 296 297 296 295 294 294 294 294 294 295 295 294 293 292 292 291 290 290 289 288 287 287 288 286 286 285 283 281 280 280 279 279 279 279 278 278 277 277 276 276 275 274 273 272 271 270 270 270 271 271 270 270 270
286 286 286 286 283 279 281 282 278 273 276 286 289 288 289 290 289 288 289 290 290 291 291 290 291 291 293 294 294 294 294 295 295 295 295 295 296 295 295 294 293 293 293 293 293 293 293 292 291 291 290 290 289 288 287 287 286 285 284 282 280 280 279 279 279 279 278 278 277 277 276 276 275 274 273 272 271 270 270 270 270 269 270 270 270 269
286 286 287 285 285 281 278 279 272 274 284 286 288 286 289 288 288 288 286 288 290 291 291 290 291 292 293 293 293 294 293 290 289 290 291 291 292 293 292 292 293 293 293 293 293 293 293 292 292 291 290 290 289 288 287 286 285 284 283 282 280 280 280 280 279 279 278 277 276 275 275 275 274 273 272 271 270 270 270 269 269 269 270 269 269 269
290 288 287 282 286 275 278 278 278 285 283 285 286 283 285 283 284 283 280 284 289 290 290 290 290 291 292 292 293 289 287 287 287 289 291 290 290 290 291 291 292 293 294 295 295 294 296 294 293 292 291 290 289 287 286 286 285 284 282 281 281 280 279 280 279 278 277 277 275 275 275 274 274 273 272 271 270 269 270 269 269 269 269 267 269 268
288 286 288 283 282 284 279 277 278 277 274 281 288 289 289 290 290 290 285 282 288 288 290 289 288 290 290 291 289 286 288 286 285 288 292 291 291 291 291 292 289 289 289 290 290 290 290 291 291 292 291 289 287 287 286 284 284 282 281 280 280 279 279 279 279 278 277 276 275 275 275 274 274 272 271 270 269 269 269 269 269 268 268 267 267 267
285 286 287 285 282 283 279 276 276 274 278 286 285 284 285 287 290 288 284 278 286 285 288 288 288 289 290 290 286 287 286 283 284 288 290 289 290 290 289 289 288 288 288 288 287 287 287 288 289 289 289 288 286 286 285 284 283 282 281 280 280 279 279 279 279 278 277 276 275 275 274 274 273 272 271 270 269 269 269 268 268 268 266 266 267 266
282 283 284 282 281 281 280 277 275 280 279 284 283 283 284 286 289 285 274 276 283 283 285 287 288 289 289 289 286 286 285 282 284 287 287 288 288 288 288 287 286 286 286 286 286 287 287 287 286 286 286 286 287 286 284 284 283 281 281 280 280 279 279 279 279 279 278 277 275 275 273 273 272 271 270 269 268 267 267 267 266 265 266 265 266 265
279 279 282 278 281 281 281 278 280 281 285 283 282 284 283 287 286 277 273 279 281 282 284 288 288 290 289 286 287 284 286 289 287 285 285 285 285 285 285 285 285 286 285 285 285 286 285 285 285 285 286 286 286 283 283 283 282 281 281 280 279 279 279 280 280 279 278 276 274 273 272 271 270 269 269 268 267 266 266 266 266 265 264 264 265 265
278 280 280 282 279 279 280 278 278 282 286 284 285 285 286 284 275 275 283 284 284 284 285 287 288 289 288 286 286 286 288 289 285 285 285 285 286 286 284 283 283 283 284 284 284 284 284 284 284 284 285 285 284 282 282 282 281 281 281 279 279 279 281 280 279 278 276 274 273 271 270 269 268 267 266 265 265 264 264 265 265 264 263 264 264 262
278 278 275 278 281 281 280 277 276 273 283 284 284 282 284 280 282 284 284 284 285 286 285 284 286 288 287 286 287 287 287 285 285 285 285 285 284 284 283 283 283 283 282 282 282 283 283 283 283 283 283 283 281 281 280 280 280 280 280 279 279 280 280 280 278 276 275 273 271 269 268 266 265 264 263 263 264 263 263 262 261 262 262 262 261 261
286 278 278 280 284 276 277 274 276 283 282 285 284 280 284 286 288 287 288 284 284 284 285 285 285 287 287 286 286 286 286 285 284 285 285 284 284 284 284 284 284 284 284 284 284 283 282 283 283 282 282 280 279 279 280 279 279 279 279 279 281 280 279 278 276 275 272 270 268 267 265 264 263 262 262 262 262 262 262 262 261 260 261 261 261 262
284 281 283 279 285 281 278 283 285 284 285 286 289 290 288 289 290 288 287 287 285 285 286 285 286 287 287 286 286 286 285 285 285 285 284 284 285 284 284 284 284 284 284 284 283 282 281 282 282 281 280 279 278 278 278 279 278 278 277 280 280 279 277 276 273 272 270 269 267 265 263 263 262 262 262 261 261 261 262 260 260 261 262 261 262 263
282 281 282 280 281 287 285 284 284 285 286 285 288 289 289 289 289 287 287 286 287 287 286 285 286 287 286 286 284 284 285 285 285 285 284 285 285 285 285 285 284 284 284 283 282 281 280 281 281 280 279 277 277 277 277 277 278 277 278 280 279 278 276 273 271 270 269 267 265 264 262 261 261 261 261 261 262 262 263 261 260 263 263 262 263 263
282 281 279 279 282 280 276 283 282 284 285 285 286 288 288 287 287 287 286 288 288 288 287 287 287 286 285 284 284 284 284 285 284 285 285 284 285 285 285 284 285 284 284 282 283 281 279 279 279 279 278 277 276 275 276 276 277 279 279 278 278 276 273 271 270 269 268 265 265 263 261 261 261 261 260 260 261 262 263 263 263 264 264 263 263 263
278 283 278 279 280 279 278 281 280 282 284 285 287 286 286 287 287 287 287 288 288 288 287 286 285 284 284 283 284 284 284 285 284 284 284 284 284 284 284 284 284 284 284 284 283 281 279 278 279 279 278 278 278 275 275 275 275 277 277 275 275 273 271 270 269 269 267 265 264 263 262 262 262 261 260 260 261 262 262 263 263 263 263 264 264 263
282 283 274 279 278 280 282 279 280 281 281 282 283 284 286 288 289 288 286 286 286 285 285 284 285 285 284 284 285 284 283 284 285 285 284 285 284 284 284 284 284 284 284 283 282 280 279 278 278 278 279 279 279 276 275 274 275 275 276 274 272 270 270 269 268 268 265 264 263 263 262 263 262 263 263 261 261 263 264 263 262 263 264 264 264 265
280 278 280 279 276 276 277 279 280 276 277 281 283 284 285 286 287 287 287 285 285 284 284 284 284 284 285 285 285 284 283 284 285 285 284 285 285 285 284 284 284 284 283 283 282 280 279 278 278 278 278 279 279 278 275 274 274 274 275 272 270 269 269 268 267 266 264 264 264 263 262 264 263 263 264 263 262 262 262 263 265 265 263 263 264 266
280 281 281 277 277 277 282 284 283 283 283 285 286 286 286 286 285 284 285 285 285 286 286 285 284 284 283 283 284 284 284 284 284 285 284 284 284 285 285 285 284 284 283 282 280 279 278 278 278 278 277 278 278 278 276 274 273 273 273 271 269 269 269 268 267 266 265 263 264 264 263 264 263 263 263 263 263 263 262 262 264 267 268 267 266 267
Wind_Speed
3 8 8 9 11 10 11 13 13 11 5 6 7 9 11 11 12 10 13 5 4 4 10 11 12 12 12 12 7 10 8 7 7 7 7 6 5 4 3 3 2 2 2 2 3 3 3 4 4 4 4 4 5 6 6 7 7 6 5 6 8 6 5 5 6 7 7 7 7 8 9 9 8 8 8 9 9 10 9 11 11 11 10 11 10 10
3 9 11 12 12 11 7 8 10 11 6 10 9 9 9 9 11 9 8 5 1 1 8 10 12 13 13 12 9 10 9 9 9 8 8 7 6 4 4 4 3 3 3 2 3 3 3 3 3 3 4 4 5 6 6 6 6 6 6 7 7 6 7 7 7 6 7 7 6 7 8 8 8 8 8 9 9 9 9 11 12 11 11 12 12 11
7 12 11 12 8 3 2 1 4 7 9 8 8 8 9 9 10 11 10 5 1 3 7 6 8 10 13 12 5 10 8 4 4 4 5 7 6 5 4 3 4 3 3 3 3 3 4 4 4 4 4 4 5 5 5 5 6 6 7 7 7 6 6 7 7 7 8 8 8 9 9 9 10 10 9 10 9 9 10 11 11 11 11 11 11 11
10 11 15 9 3 4 3 5 5 7 7 8 8 8 10 8 6 7 5 2 3 3 7 10 14 13 16 15 5 4 4 4 4 3 4 2 6 5 5 4 4 4 4 4 3 4 4 4 4 4 4 4 4 4 4 5 6 6 6 7 7 7 7 8 8 10 11 12 12 12 11 11 10 10 10 11 10 11 12 12 11 11 11 11 11 12
13 2 4 8 5 8 10 6 7 7 9 9 11 10 9 9 8 7 5 1 4 10 5 8 10 11 13 9 5 4 3 4 4 5 4 3 2 4 4 3 2 4 4 4 5 4 4 5 4 4 4 4 4 4 5 5 4 4 7 7 8 8 9 8 9 11 11 11 12 11 12 11 11 10 9 9 10 10 10 10 10 10 10 11 11 11
16 2 3 5 6 7 7 9 10 8 10 9 11 13 11 12 11 10 10 8 7 9 7 6 5 4 4 4 6 6 4 5 5 6 7 7 6 6 6 5 4 3 2 4 5 4 4 5 5 5 5 4 5 4 4 4 4 6 6 7 8 8 8 9 10 9 8 8 8 8 8 8 8 8 8 8 8 8 9 9 8 10 10 10 10 10
4 6 5 7 7 7 9 10 8 10 10 8 4 2 8 7 9 8 8 1 6 4 4 2 3 5 1 3 8 8 7 7 6 7 6 6 7 7 6 6 6 6 5 3 4 5 5 5 5 5 5 4 5 4 4 4 5 6 6 7 7 7 6 6 6 5 5 6 7 8 8 8 8 9 8 8 8 8 8 8 9 9 9 10 10 10
7 5 5 5 8 8 8 9 9 9 7 8 4 2 2 5 6 7 6 7 8 6 3 5 6 8 8 9 1 8 7 7 6 7 8 7 8 8 7 7 7 7 7 6 6 6 5 5 5 6 5 4 4 4 4 4 5 7 7 7 7 6 6 5 5 7 7 8 9 10 10 9 9 9 10 9 8 8 8 8 9 8 8 9 9 10
6 8 9 9 10 8 10 8 4 10 8 1 3 3 1 1 4 5 5 6 5 3 5 6 6 4 6 5 4 4 4 7 8 9 10 9 9 9 8 8 8 7 7 7 7 7 6 6 5 5 5 5 5 4 4 4 5 5 6 7 7 7 7 6 8 8 9 8 9 9 9 11 9 9 9 8 8 8 8 9 8 9 9 9 10 10
2 2 6 10 8 10 5 5 2 7 9 4 6 6 4 2 1 3 4 5 4 4 8 6 9 6 9 4 6 4 4 6 6 9 9 10 11 10 9 9 8 7 6 6 7 6 5 5 5 5 5 5 4 3 4 5 5 5 6 7 8 8 7 7 9 9 10 9 8 9 9 11 10 8 8 8 8 8 7 9 9 8 8 7 8 9
2 0 5 3 8 2 7 6 4 3 4 8 5 4 3 3 3 3 4 4 3 8 10 10 11 7 5 1 3 5 2 4 6 5 6 9 9 9 8 9 8 8 7 6 6 6 5 5 5 5 6 5 5 4 4 4 5 5 6 8 9 8 8 8 9 9 10 9 9 9 10 11 11 10 9 9 8 8 8 8 8 8 8 7 7 7
3 4 3 2 4 4 7 6 4 2 3 7 4 5 5 3 4 4 3 3 5 6 3 2 4 7 6 2 4 7 6 5 3 6 9 11 11 10 9 9 9 9 8 8 7 7 6 5 5 4 5 6 5 5 5 5 5 6 6 8 10 9 9 9 9 9 9 9 10 10 10 11 10 10 8 9 9 8 9 8 8 7 7 7 7 7
7 7 4 5 2 6 6 6 3 3 4 5 6 7 7 4 3 5 4 6 9 7 4 3 5 3 11 11 4 4 4 5 3 3 8 10 11 10 10 10 9 9 9 8 7 7 7 7 6 6 6 6 6 6 6 7 6 7 8 9 10 10 9 9 9 10 9 9 9 9 10 10 9 10 10 9 9 8 7 7 7 7 7 6 7 7
5 4 10 7 3 7 8 9 7 4 8 9 10 9 7 7 7 7 7 4 2 4 3 4 2 5 3 7 11 5 8 6 6 6 3 10 11 12 11 10 9 9 9 8 7 7 7 7 6 7 7 6 6 7 7 7 7 7 8 9 10 10 9 9 10 10 10 10 9 9 9 9 9 9 9 8 8 7 7 6 7 6 6 6 6 6
6 4 11 13 7 12 11 10 10 5 11 11 9 9 7 4 3 7 6 7 3 1 4 3 2 3 5 3 4 5 4 4 5 4 4 3 9 10 10 10 10 10 9 8 8 8 8 8 8 8 8 7 7 8 8 7 7 8 8 9 10 11 10 9 9 8 9 9 9 9 9 8 8 8 8 8 7 7 7 6 7 6 5 6 5 5
13 5 5 8 4 14 13 7 2 8 7 8 6 3 4 6 4 6 2 3 2 0 3 4 5 2 4 4 4 3 4 3 4 4 5 5 8 11 10 11 11 10 10 10 9 9 9 10 10 9 9 8 8 9 7 8 8 8 8 9 10 10 10 9 9 9 9 9 8 9 10 9 9 8 8 7 6 6 6 6 6 6 5 5 5 4
2 6 6 5 1 7 10 3 6 2 7 9 6 7 7 6 3 2 2 2 1 1 10 4 5 7 0 3 6 5 5 6 5 6 6 8 9 10 10 10 11 11 11 11 11 10 12 11 10 9 10 9 9 9 8 9 8 9 10 10 10 10 9 9 9 9 9 9 9 9 9 8 8 8 8 7 8 7 6 6 6 6 5 5 5 4
3 3 1 7 5 2 3 4 1 2 3 8 6 7 5 3 5 2 4 3 3 7 6 6 8 6 7 5 7 6 5 7 7 8 8 9 10 11 10 11 12 13 12 12 11 11 12 11 12 10 9 9 9 9 9 9 8 8 8 10 11 10 11 9 9 9 9 9 9 8 8 8 8 8 8 7 7 6 6 5 5 5 4 4 4 3
5 3 5 1 4 4 1 2 4 1 3 3 1 3 7 6 5 7 2 6 7 8 6 6 11 10 10 6 6 9 8 8 9 9 9 11 11 12 11 12 12 12 11 12 13 12 12 12 12 11 10 10 9 9 9 9 8 8 8 9 9 11 10 10 8 9 8 7 6 6 7 8 7 7 6 6 6 5 6 6 5 5 5 4 4 4
2 6 3 1 2 6 5 8 9 9 5 2 3 3 1 3 4 7 7 2 2 8 5 7 3 6 7 8 16 14 14 12 10 10 11 12 12 11 11 12 13 14 13 13 13 12 12 12 12 11 11 11 11 10 10 10 8 10 10 10 10 10 10 9 9 9 9 7 6 7 7 7 6 7 6 6 6 6 6 6 6 5 5 5 4 3
5 1 4 5 1 6 6 8 9 12 11 8 6 7 4 3 2 4 3 4 4 6 7 9 10 4 2 4 12 10 13 12 11 11 9 10 11 11 11 11 12 13 12 13 13 12 12 12 12 11 10 10 9 9 9 9 10 10 9 10 11 12 11 10 9 9 8 7 7 8 8 7 7 7 6 7 7 6 6 5 5 4 5 5 4 4
3 6 7 7 7 8 3 3 2 3 11 11 11 12 12 8 6 7 7 4 2 3 6 5 11 5 3 3 4 5 6 9 9 8 8 8 9 10 9 11 11 11 12 13 12 12 12 12 12 11 10 9 9 9 10 9 9 10 10 9 10 10 10 11 10 9 9 8 7 8 8 7 6 6 6 6 6 6 5 5 4 4 5 5 4 4
3 2 4 5 8 8 2 2 1 1 3 2 7 9 10 8 8 7 10 5 1 5 2 3 5 7 5 4 4 4 4 5 5 5 7 6 7 8 8 8 9 10 12 13 12 12 11 12 12 12 12 11 11 10 11 11 10 10 10 10 10 10 11 10 9 9 8 8 8 8 7 7 6 6 7 6 5 6 5 5 5 4 5 4 4 4
3 2 5 3 6 4 3 1 1 1 1 3 5 3 5 10 9 9 6 2 4 3 4 6 7 4 3 3 2 1 1 0 1 2 4 5 5 6 7 6 8 9 10 10 10 10 10 11 12 11 12 12 11 12 12 11 10 10 9 10 10 11 11 10 8 8 8 8 8 8 7 7 7 7 7 6 5 5 5 4 4 4 5 4 4 4
5 5 8 6 3 3 0 1 2 2 4 4 8 8 6 3 2 1 3 1 3 7 4 6 13 8 3 2 2 1 1 1 2 3 3 4 3 3 5 7 8 9 9 11 12 12 12 12 13 13 13 12 12 11 11 12 11 10 10 9 10 10 10 9 8 8 8 8 9 7 7 7 6 6 6 6 5 5 5 4 4 4 4 4 4 3
5 5 10 13 14 12 11 12 13 11 8 4 1 2 9 13 11 6 8 6 8 4 5 7 13 7 3 3 2 1 0 1 2 4 4 2 3 5 6 7 8 9 11 12 12 13 15 14 12 12 13 12 12 12 13 12 10 10 9 10 9 9 9 9 8 8 8 7 8 8 7 7 6 6 6 6 6 5 4 4 4 3 3 3 3 3
2 1 6 8 7 6 3 2 2 6 7 7 8 9 10 10 11 9 3 6 11 2 6 13 15 9 8 7 7 6 3 7 7 5 4 4 4 4 5 6 8 10 11 13 14 12 11 12 15 15 13 12 12 13 12 12 12 11 11 11 10 8 8 8 8 8 7 7 7 6 6 6 5 5 5 5 5 5 4 4 3 3 3 3 3 2
0 5 8 10 6 3 5 4 1 9 12 12 9 11 11 10 9 8 10 9 2 5 14 13 10 10 18 15 7 10 8 8 7 6 5 4 4 7 8 7 8 8 9 10 11 13 15 16 15 15 16 15 15 14 12 12 13 12 12 12 9 9 7 7 8 8 8 8 7 7 7 6 6 6 6 5 5 5 5 3 2 2 2 2 3 3
4 6 7 6 10 3 3 3 3 3 5 7 10 10 13 14 12 14 12 12 10 12 16 13 8 6 13 16 7 5 8 8 7 7 8 7 7 7 7 8 9 10 10 11 13 13 13 13 14 17 17 18 16 15 15 12 12 12 11 8 7 6 6 6 7 7 8 8 8 8 8 7 6 6 6 6 5 5 4 3 3 2 3 2 2 2
2 5 4 7 8 8 3 5 1 3 4 4 9 11 12 13 13 11 10 14 15 10 11 15 13 15 18 17 3 7 7 7 6 4 6 8 9 10 9 9 10 10 12 13 13 13 12 13 11 11 6 6 11 13 13 13 14 13 10 11 8 9 8 9 7 10 9 9 8 8 8 8 7 7 6 6 6 5 4 4 3 3 3 3 2 2
3 3 3 4 4 6 4 5 4 7 4 7 11 14 16 15 11 11 14 15 12 13 19 17 16 20 19 10 8 9 2 2 3 6 9 9 10 9 8 9 10 11 11 11 11 12 12 11 10 9 10 13 13 15 14 13 13 9 10 9 10 10 10 9 9 10 10 9 8 8 8 8 7 7 7 6 6 5 5 4 3 3 3 3 2 2
1 3 1 2 6 4 3 7 3 3 1 5 12 18 20 15 14 14 14 10 11 14 14 10 13 17 15 3 5 8 7 6 8 9 10 8 9 8 8 10 10 10 10 10 9 9 9 10 10 12 13 14 15 16 16 15 13 12 12 11 10 9 9 9 10 11 10 7 8 8 8 8 8 7 7 7 6 6 3 3 2 2 2 3 2 2
4 4 5 5 5 4 4 5 6 5 1 6 17 20 13 11 13 12 11 13 14 11 9 13 16 13 10 7 6 5 8 9 10 9 9 8 7 9 11 11 10 9 8 7 8 8 8 10 12 13 14 13 15 16 18 16 12 15 13 12 10 8 10 11 10 11 9 7 8 8 7 8 8 8 6 5 5 5 4 3 3 3 3 3 2 2
3 4 3 3 4 3 8 7 7 4 6 14 2 5 9 13 15 15 16 17 16 15 13 12 11 7 8 7 10 10 9 10 10 9 7 7 7 9 9 9 7 6 6 6 5 6 8 8 9 12 14 15 15 16 16 15 14 11 11 11 10 12 13 12 11 10 10 9 8 8 8 8 7 6 6 6 5 5 5 5 5 4 3 3 3 3
8 6 4 2 3 4 5 7 6 10 13 1 3 4 3 5 6 11 15 15 15 14 14 14 14 14 14 12 12 12 10 10 7 7 7 5 5 6 6 5 5 5 5 4 6 7 8 9 9 10 11 12 13 12 13 10 8 8 10 11 10 12 13 12 12 11 10 10 9 8 8 8 8 7 7 7 6 5 5 5 4 4 4 4 4 4
7 8 3 3 3 4 4 8 5 7 1 4 7 5 4 5 3 2 7 11 16 15 14 16 17 18 17 14 9 6 3 3 3 4 3 1 4 5 4 4 5 5 5 6 7 7 8 9 9 10 10 9 9 10 10 9 10 11 11 9 13 14 14 13 13 10 9 10 9 8 8 8 7 7 7 7 6 6 6 5 5 5 4 3 3 2
10 5 5 4 4 5 6 10 11 9 13 12 11 7 8 8 9 10 7 12 13 12 13 13 15 16 13 11 6 4 4 1 4 7 6 9 6 5 6 7 5 4 3 2 2 1 1 3 5 6 6 7 9 9 10 8 10 10 10 9 13 12 13 12 12 12 13 10 8 9 9 9 9 8 8 7 7 6 6 6 6 5 4 4 4 3
2 9 7 7 5 8 6 5 5 6 12 13 10 4 11 9 8 7 7 11 6 4 9 11 10 11 11 8 5 6 4 0 7 8 6 8 8 9 9 3 3 2 1 1 2 2 2 2 3 4 6 8 8 8 7 9 11 9 9 11 12 12 12 11 10 10 9 9 9 9 9 9 7 8 8 7 7 7 6 5 4 5 4 4 4 3
2 3 1 8 5 6 8 9 9 9 8 5 2 5 3 2 6 4 3 11 3 5 8 9 11 11 8 6 6 6 3 5 7 6 3 4 3 3 5 5 5 4 3 3 3 3 4 4 4 5 6 7 8 8 9 12 14 12 10 12 10 10 11 15 14 11 11 10 9 9 9 7 7 7 7 7 7 7 7 6 5 4 4 3 2 2
3 4 4 8 10 12 11 10 11 9 5 1 3 3 5 3 6 3 7 6 3 4 0 3 6 5 5 5 7 5 5 6 7 3 4 2 2 2 3 4 4 4 4 4 3 2 3 4 5 5 8 9 8 8 11 12 13 14 14 13 10 14 16 16 15 10 8 9 10 8 6 5 9 8 7 7 7 6 5 5 4 4 4 4 2 3
4 4 6 12 12 17 18 14 9 7 1 3 5 7 5 2 5 9 12 2 2 3 3 5 6 6 7 7 7 5 8 7 1 4 2 3 3 3 2 3 3 3 5 5 5 4 4 4 5 6 7 6 6 7 10 11 13 12 12 10 9 19 14 10 9 11 10 9 8 7 7 5 8 10 7 5 7 6 5 4 5 5 4 3 2 3
2 2 3 4 10 14 15 14 10 6 3 6 4 9 9 6 7 10 0 4 7 4 5 7 8 6 7 8 7 7 5 3 5 4 4 3 3 3 4 4 4 3 3 3 4 5 4 4 4 4 4 5 5 7 6 11 12 9 11 10 15 18 9 8 11 12 10 11 11 10 10 9 7 7 7 7 7 6 5 3 4 4 4 3 3 4
10 8 7 10 4 3 5 10 7 10 4 11 9 3 4 4 4 4 3 1 1 4 6 5 6 4 6 6 8 7 6 4 3 4 3 3 3 4 6 6 6 6 6 5 4 5 5 5 5 6 5 3 5 5 5 10 11 11 10 13 19 9 9 11 10 11 11 11 10 10 10 9 10 9 7 6 5 7 6 4 4 4 4 3 3 4
9 4 5 7 8 6 9 10 8 1 4 11 15 8 7 6 3 5 2 2 3 3 5 4 5 5 5 5 5 6 5 3 3 3 3 3 3 2 4 4 4 4 5 5 5 7 5 5 5 5 5 4 3 3 6 11 12 11 12 17 12 9 8 8 9 10 10 9 9 10 9 9 8 7 5 6 6 6 5 5 5 4 4 5 4 4
10 9 2 5 9 9 7 8 1 3 8 7 6 2 6 6 1 2 1 2 5 4 4 4 5 5 5 6 6 4 3 4 5 5 6 6 5 5 5 6 6 6 6 6 6 5 4 7 7 5 4 4 4 4 7 8 11 11 15 16 9 10 10 10 10 11 10 10 10 10 9 7 5 5 5 6 6 6 5 5 5 5 5 4 4 4
6 2 2 2 3 4 3 2 3 2 7 9 4 2 3 5 3 2 3 4 4 4 6 6 5 6 6 4 3 3 5 5 4 5 6 6 6 6 5 3 4 4 4 3 3 5 5 4 3 4 5 5 6 6 7 8 9 13 16 6 7 8 9 10 11 11 12 10 10 10 10 10 6 4 4 5 5 4 5 6 6 5 5 5 4 4
5 4 1 3 2 3 6 8 8 6 6 6 6 3 1 1 2 3 4 4 4 4 4 4 3 3 5 3 6 6 6 6 5 5 5 5 6 6 7 7 7 8 8 7 9 6 5 5 6 7 8 8 6 6 6 11 11 12 2 5 6 7 9 10 12 11 10 11 9 8 8 8 7 6 5 4 4 4 4 5 5 5 4 5 4 4
3 8 2 4 5 8 4 4 3 3 1 3 5 5 6 6 6 6 5 3 3 1 2 3 3 2 3 3 6 6 7 6 5 5 5 6 6 7 8 8 9 8 8 10 9 6 5 6 9 9 9 11 11 9 10 12 14 13 6 4 7 9 9 10 11 13 13 13 8 7 8 6 9 8 6 6 6 6 6 5 5 5 6 6 6 5
2 9 4 6 6 6 6 3 3 3 4 5 4 4 5 5 6 6 6 6 5 4 3 3 4 5 6 7 5 6 4 6 6 6 7 6 6 6 7 8 8 9 9 7 6 8 10 11 11 12 12 12 10 10 11 13 14 12 10 7 8 10 12 12 11 9 10 9 5 6 7 6 7 7 7 6 6 5 6 6 6 6 3 3 2 3
5 8 5 6 6 8 11 9 12 4 4 7 9 11 10 9 6 4 4 5 6 7 6 6 6 6 6 6 5 5 5 6 7 7 8 7 7 7 7 8 8 8 8 5 4 5 6 7 9 10 11 10 7 8 10 11 12 11 10 8 8 10 12 11 10 10 11 8 6 6 7 6 6 6 6 6 6 5 3 5 7 5 4 3 7 9
11 12 10 9 10 8 6 6 11 9 8 8 6 9 10 7 5 6 7 8 9 9 6 6 6 6 7 7 6 7 8 8 8 7 8 7 8 8 8 9 8 7 7 4 4 5 8 10 9 9 9 9 5 7 9 10 10 10 10 10 10 12 12 12 9 6 5 6 7 8 8 6 6 6 5 6 6 6 6 4 6 11 11 8 8 9
Wind_Direction
166 210 208 211 228 230 218 223 237 264 323 297 294 278 270 273 271 269 278 93 117 285 257 260 262 261 265 263 237 169 163 197 194 199 201 196 179 171 168 166 140 115 79 68 63 61 42 47 44 52 51 67 65 55 52 57 48 46 55 61 60 57 70 78 76 70 73 74 76 71 70 74 68 63 61 57 49 47 43 40 42 40 39 36 35 34
197 229 229 230 240 256 266 233 241 257 269 273 276 274 271 257 268 271 283 113 346 341 284 277 270 262 259 262 250 163 169 196 197 203 203 189 174 162 174 162 157 115 115 143 110 91 86 67 67 73 67 54 67 50 63 63 64 69 67 64 63 54 62 67 68 71 68 61 64 81 78 79 70 64 61 60 54 54 50 44 43 40 39 40 39 35
211 226 232 235 241 120 51 283 274 267 268 254 255 261 262 262 270 278 259 95 163 228 272 294 286 275 271 265 220 176 190 191 174 178 201 182 169 175 164 160 154 158 141 132 108 109 100 92 78 81 74 65 61 66 64 70 80 74 70 65 64 61 64 67 76 83 83 83 81 86 88 85 81 72 73 73 69 64 60 52 47 46 42 41 41 40
240 238 231 232 153 208 206 235 232 248 244 250 239 231 247 271 283 281 104 20 153 252 309 305 291 280 270 258 182 125 157 142 113 112 112 138 182 183 174 168 170 156 156 150 140 126 109 103 102 92 88 76 78 74 70 70 72 75 77 80 83 80 79 81 78 86 88 89 91 87 89 89 90 91 85 79 72 66 62 56 51 48 47 44 45 40
235 28 37 172 190 220 241 212 220 224 244 226 231 248 259 260 253 242 282 229 260 250 247 280 274 268 252 221 159 143 112 133 151 151 157 150 118 106 107 126 168 167 161 152 145 134 133 122 103 95 89 95 88 73 59 59 78 86 89 92 92 91 91 91 96 98 101 99 96 99 100 100 102 95 87 82 73 67 65 65 53 51 51 50 50 46
250 169 129 153 179 214 225 233 210 228 249 252 228 223 251 268 271 274 282 311 300 287 170 243 296 280 113 186 187 153 162 192 163 188 188 175 175 177 182 175 153 128 129 152 142 135 126 121 116 108 104 97 94 81 59 60 81 93 92 92 92 95 94 98 103 106 107 111 114 119 116 108 98 91 80 75 79 75 68 68 68 60 55 56 54 52
267 115 194 180 173 212 217 239 226 204 250 255 292 162 248 259 279 275 274 271 270 277 83 291 276 285 220 210 183 164 185 172 165 200 182 179 180 180 182 168 172 168 159 136 130 137 137 131 126 117 105 102 97 82 81 82 85 87 89 88 90 90 90 86 95 104 114 105 99 95 94 96 97 99 89 90 88 87 84 81 75 69 60 56 58 53
145 176 170 183 204 207 218 229 221 206 233 253 63 290 126 281 253 252 238 243 270 317 203 203 257 278 280 275 136 160 176 174 179 194 187 193 182 182 175 171 164 162 160 155 151 142 130 133 135 122 113 108 100 99 93 91 91 95 94 95 93 91 91 87 91 93 96 101 99 100 100 98 96 95 101 96 91 90 91 86 80 76 67 58 55 54
190 166 184 196 206 210 224 233 177 193 225 289 81 85 15 278 282 246 238 250 259 337 279 222 195 253 259 243 157 155 207 199 212 194 193 190 184 180 175 169 163 159 155 157 153 151 144 134 125 123 115 109 108 106 104 98 93 93 95 96 97 96 93 92 94 95 92 98 104 105 106 102 99 99 99 101 98 94 91 86 80 76 71 65 57 51
13 169 201 205 195 219 171 80 84 177 224 134 128 86 92 105 91 226 232 246 239 255 254 246 175 255 280 248 194 143 254 246 213 188 186 185 180 176 172 165 160 147 148 152 146 139 130 125 115 112 118 115 102 97 99 99 103 104 105 103 103 99 98 98 96 94 97 100 103 103 105 108 110 109 104 100 98 92 88 82 77 71 68 64 60 54
90 93 351 232 213 218 98 72 45 68 69 130 143 147 144 178 199 192 243 235 257 244 247 237 201 227 293 201 225 227 70 72 93 134 163 172 173 173 168 163 160 156 154 152 144 138 128 124 125 131 129 118 109 113 115 110 111 112 112 113 107 103 102 101 98 99 100 101 102 103 104 104 106 106 104 100 92 90 85 83 77 73 69 63 59 56
173 125 170 200 68 107 119 91 55 59 142 167 158 181 160 176 175 211 192 217 236 256 101 43 194 202 221 210 192 76 109 90 110 161 171 174 176 171 168 164 163 160 158 156 152 146 144 140 140 136 127 128 129 129 127 123 120 121 120 120 114 108 104 101 100 99 98 99 99 100 101 101 100 100 98 95 93 88 85 83 82 78 73 66 62 57
212 203 165 103 266 162 159 138 113 140 173 203 178 180 197 184 166 203 185 204 215 245 116 99 130 202 234 255 55 116 142 129 95 105 172 175 170 167 167 163 162 161 158 160 160 156 159 162 157 153 144 138 142 142 138 134 130 128 129 128 121 114 110 106 105 103 102 102 100 100 97 93 91 91 92 89 85 80 80 76 77 75 72 65 59 50
227 177 186 167 125 229 197 178 156 175 192 191 192 183 193 216 208 236 210 222 232 75 244 114 152 248 304 241 247 184 106 95 104 80 110 170 170 169 166 161 159 160 163 164 162 164 167 164 161 160 155 158 155 150 146 142 139 136 135 132 123 118 116 115 111 109 106 101 100 98 97 96 93 90 87 87 85 80 78 77 78 77 77 75 70 63
214 214 212 163 216 168 206 221 186 180 171 200 201 197 212 229 232 228 215 221 234 120 115 208 175 228 165 178 57 75 71 90 86 97 85 138 162 162 158 156 156 162 168 169 169 170 172 167 167 167 169 166 162 158 151 149 145 141 136 135 130 125 123 121 117 113 108 103 100 97 95 95 96 94 91 87 88 87 87 85 85 80 78 78 74 68
222 253 73 165 359 159 189 194 9 169 163 192 209 269 256 245 283 261 15 342 44 222 178 164 237 212 220 112 107 112 136 118 134 118 147 143 157 155 159 167 170 175 173 174 174 173 175 172 172 172 174 170 166 162 157 154 150 144 140 138 133 129 127 124 120 114 109 104 100 96 93 90 91 93 93 92 88 88 86 88 90 86 83 88 88 82
163 230 119 119 146 187 187 160 197 200 201 164 164 210 206 13 275 272 135 79 125 269 262 169 227 245 117 192 146 147 142 149 153 164 162 170 168 164 174 176 177 178 178 179 180 178 176 175 179 179 176 171 168 166 166 158 156 150 145 144 138 132 129 127 121 114 109 106 104 99 97 99 98 97 97 99 97 95 93 93 90 90 91 92 90 92
220 145 150 159 184 33 38 329 86 66 353 116 208 203 71 19 351 244 258 167 207 249 271 170 211 229 176 233 138 160 176 164 175 180 179 172 180 185 186 184 183 183 183 179 179 180 180 179 179 178 178 174 171 167 165 159 154 151 151 149 144 142 138 131 124 119 117 114 107 106 103 99 98 99 100 104 108 108 111 109 105 107 95 84 92 94
217 214 150 153 72 92 103 166 185 166 339 270 227 359 179 199 207 211 228 249 243 245 257 214 210 232 219 212 149 180 188 181 180 172 174 181 191 196 192 190 187 180 179 181 182 182 183 182 181 179 173 170 170 168 164 159 154 154 154 151 148 143 137 132 126 123 118 115 112 114 113 111 110 111 112 115 112 110 107 102 98 97 100 101 87 81
212 237 137 252 136 131 162 181 195 186 188 299 239 227 7 313 243 195 197 276 283 262 258 269 193 251 197 228 170 185 193 197 171 168 194 194 192 192 191 186 185 185 186 181 182 185 184 182 179 176 172 170 171 170 168 162 159 160 156 154 148 140 136 133 131 131 128 124 125 124 121 121 122 121 122 122 121 115 111 110 111 107 103 98 94 90
217 225 245 128 116 150 191 195 208 181 180 183 209 214 176 221 39 341 287 214 223 249 257 278 277 257 181 141 165 182 185 194 169 185 188 191 194 193 192 188 188 186 183 181 183 183 181 177 173 170 170 169 169 171 167 167 169 163 159 159 153 149 146 142 141 140 135 134 134 134 132 132 129 122 118 116 115 113 110 109 109 111 112 108 94 85
214 185 218 136 181 205 198 125 214 252 196 194 189 204 189 178 193 201 234 164 234 230 250 256 261 281 112 14 132 169 174 188 170 172 168 179 184 189 191 192 183 183 187 185 184 179 176 171 170 166 167 169 171 174 173 171 172 166 166 163 157 154 152 150 150 147 142 140 142 140 136 131 123 117 116 118 117 115 116 113 110 117 115 106 97 86
256 210 199 175 201 200 93 57 52 305 327 261 220 211 199 205 199 207 234 202 140 230 8 281 318 277 83 53 53 40 32 52 81 130 138 136 154 168 176 179 183 184 187 186 178 174 172 170 169 169 170 173 178 176 176 176 176 171 170 164 164 161 162 158 153 147 145 145 145 141 134 130 128 126 121 119 118 120 121 120 116 110 106 98 97 87
76 196 192 169 65 86 112 109 173 3 302 248 245 282 217 208 203 226 239 272 215 176 196 228 238 255 102 1 35 91 82 338 355 33 109 121 138 144 149 166 179 182 186 177 164 163 163 165 164 166 178 181 183 182 179 180 177 174 173 169 166 169 164 158 149 147 146 145 140 138 137 134 131 130 131 127 122 125 125 120 109 102 96 96 87 87
169 201 208 176 182 168 248 195 258 190 206 225 211 200 221 232 215 100 77 91 251 227 235 221 249 247 132 330 333 67 169 163 138 150 180 161 156 169 170 176 181 177 168 164 164 166 164 164 171 179 184 185 183 181 182 182 181 175 175 168 170 169 163 151 148 147 146 144 143 144 139 136 137 137 134 126 124 121 111 106 102 91 93 101 104 88
212 168 180 199 195 195 191 200 205 192 195 193 238 165 191 209 202 167 222 217 241 205 166 232 249 256 100 253 202 192 78 210 190 158 152 167 165 168 184 186 190 186 184 178 173 173 180 180 178 181 185 183 184 183 184 184 179 176 172 172 173 167 158 154 152 149 143 144 144 146 142 139 136 135 131 127 128 125 117 108 107 113 109 111 113 112
196 322 222 221 220 228 245 64 359 113 137 192 191 187 202 208 214 210 227 228 222 194 212 229 239 266 239 171 189 183 201 213 179 171 173 177 190 193 196 199 195 194 193 189 184 185 179 181 189 190 182 183 183 185 186 182 179 179 175 174 174 158 147 149 147 142 139 141 139 135 137 138 141 137 134 139 136 129 117 109 112 128 127 119 115 122
113 226 227 238 258 36 50 85 207 172 179 193 181 198 204 197 201 200 206 227 203 258 251 243 225 223 253 251 207 171 203 214 207 182 180 180 193 195 198 202 196 197 198 193 188 185 189 193 189 186 189 185 189 191 190 188 185 183 180 177 158 149 144 150 141 141 143 146 145 146 145 146 147 151 152 141 133 123 118 118 131 141 131 133 152 144
185 220 221 210 240 202 76 84 125 114 188 196 204 201 203 203 194 201 214 224 210 224 241 251 223 221 257 262 285 160 202 208 202 203 184 181 181 191 189 191 198 202 200 198 199 197 196 194 194 197 196 196 188 188 192 188 187 187 185 168 139 129 140 134 133 139 147 152 155 153 151 148 150 155 145 138 128 125 127 138 153 165 164 163 150 123
174 237 205 195 231 250 187 161 215 182 217 239 241 233 228 213 200 194 212 223 225 235 256 262 270 272 263 265 293 174 207 229 238 229 175 175 191 190 192 193 200 204 205 205 204 204 203 202 196 196 167 158 184 188 187 189 190 190 166 138 144 156 161 150 151 159 163 163 158 152 153 152 153 154 145 137 134 132 137 151 169 179 174 162 143 140
159 229 103 180 208 225 199 165 189 203 221 245 252 251 245 237 229 195 215 227 227 245 246 257 271 271 264 267 271 276 86 145 206 217 211 205 202 194 193 203 211 215 213 211 210 208 208 203 195 181 178 187 188 190 191 192 192 167 151 154 165 171 166 164 160 166 164 163 154 149 147 149 156 149 146 144 139 136 147 166 175 182 170 154 139 150
223 207 90 194 209 199 144 159 145 84 24 256 260 251 243 233 229 225 225 218 211 228 241 254 254 251 266 282 238 249 248 218 221 238 244 230 200 181 200 214 218 216 215 214 209 201 196 191 185 188 191 190 191 193 194 195 186 162 169 167 168 161 158 163 165 168 170 152 141 152 157 158 153 150 149 145 143 142 155 161 170 182 174 165 160 170
187 165 164 191 199 217 162 162 131 109 98 283 246 239 230 218 222 229 233 232 230 223 226 229 234 245 270 283 270 204 230 245 260 256 252 241 182 192 207 215 215 213 214 213 206 196 189 189 192 195 197 195 195 196 198 193 175 175 170 164 160 129 161 172 173 170 163 144 150 159 161 155 154 153 150 146 143 146 147 157 181 184 175 178 161 169
150 179 177 162 206 139 147 142 123 138 208 230 32 108 187 207 207 213 224 226 226 213 226 230 252 267 270 265 257 257 243 238 245 251 244 239 221 208 219 220 215 212 211 210 198 187 188 187 192 198 200 200 199 199 195 192 183 171 153 148 144 156 171 169 170 169 162 156 163 163 162 157 156 153 150 140 144 151 156 170 192 182 177 163 174 175
177 189 207 144 197 168 147 138 162 205 227 38 55 66 106 208 199 214 227 229 231 227 231 239 247 253 256 254 253 256 254 261 254 241 226 212 229 243 232 204 200 211 215 187 192 201 198 198 195 196 199 202 199 193 193 186 152 130 145 152 151 164 169 174 172 170 167 167 167 161 161 159 162 154 144 143 155 159 166 178 181 175 181 174 179 173
178 187 172 190 140 78 148 181 216 218 341 334 288 128 126 114 177 195 249 240 240 234 228 234 237 244 247 252 248 233 247 41 355 278 249 199 213 217 204 221 228 212 203 195 200 203 199 200 199 197 200 198 193 193 184 167 145 147 159 149 161 170 178 175 174 162 157 169 168 162 165 163 163 152 146 154 163 164 169 175 183 184 177 166 170 164
188 172 187 201 162 178 192 208 231 339 314 285 264 178 175 169 173 180 236 240 236 222 220 226 236 241 245 251 217 107 77 15 278 267 213 212 206 200 218 235 240 228 208 200 191 182 177 190 198 198 190 187 189 177 178 148 145 145 141 153 175 174 177 173 169 154 169 171 162 166 169 169 162 153 153 161 164 164 169 175 183 181 170 171 176 168
274 196 178 203 210 189 207 220 242 232 246 251 243 132 177 184 172 189 215 263 251 216 196 215 232 239 236 233 134 112 102 357 268 259 220 193 189 206 214 202 104 109 93 105 97 102 124 147 165 178 175 177 178 166 139 127 142 135 139 156 167 169 181 176 176 175 168 173 165 168 168 171 161 154 153 162 166 161 168 175 179 176 177 171 172 169
315 358 259 206 219 194 207 221 226 231 238 256 350 113 101 41 157 102 237 261 246 162 173 184 215 227 219 201 133 136 155 236 247 259 98 132 160 184 192 207 197 160 141 141 150 157 158 170 176 175 174 177 173 162 140 145 157 157 160 165 163 168 177 191 189 179 174 168 159 170 165 163 153 152 154 160 162 156 165 171 173 166 162 163 155 160
239 209 174 218 220 224 229 232 233 226 263 251 117 139 132 107 119 146 249 276 123 174 127 188 197 194 194 163 150 179 191 230 244 270 93 93 125 164 192 197 181 173 162 147 137 160 150 147 149 171 186 191 183 153 144 153 162 173 175 180 164 180 192 195 193 172 150 156 160 158 149 147 151 152 150 152 144 143 155 157 158 165 166 158 166 167
184 222 216 215 212 225 231 241 251 254 219 115 147 126 133 130 152 190 229 158 176 182 190 182 205 206 179 165 175 197 221 237 61 111 145 137 130 144 118 88 97 135 157 167 175 149 154 168 181 190 192 190 164 134 149 153 172 183 189 176 166 197 201 185 162 159 165 141 143 139 137 145 154 151 150 138 140 143 148 162 170 161 150 154 173 165
236 173 237 223 229 223 227 239 240 273 220 131 125 150 156 137 204 223 258 107 158 195 190 193 211 204 176 175 191 219 229 188 108 121 132 166 153 138 138 135 123 110 107 122 135 154 167 170 187 195 192 187 139 137 139 168 180 183 176 182 198 208 182 144 150 157 161 160 157 149 153 147 121 132 140 137 139 136 147 165 154 151 146 173 165 161
177 173 193 209 215 236 221 244 240 239 178 127 117 69 266 219 253 81 117 119 145 178 173 202 215 177 168 193 209 217 229 131 154 152 166 154 168 159 156 157 164 166 167 160 169 192 176 176 188 199 192 158 129 144 142 171 184 192 194 198 213 185 166 168 160 165 162 155 161 160 156 151 148 138 134 135 136 137 150 150 149 149 161 160 153 175
166 190 197 226 194 213 199 213 220 134 110 158 148 190 195 200 91 141 153 143 171 161 178 187 206 207 199 211 222 226 227 192 145 178 197 199 199 160 146 163 164 171 172 186 179 176 181 189 183 177 172 136 149 150 168 177 187 193 197 216 207 165 178 165 166 158 161 163 159 154 150 142 137 128 131 143 139 139 145 163 157 162 176 176 184 184
196 206 180 225 186 205 212 227 73 108 147 206 199 245 170 196 129 105 221 206 163 206 182 201 202 196 203 215 236 250 241 201 215 202 204 216 209 201 193 190 186 184 183 177 185 163 176 193 185 170 151 162 164 169 183 190 188 195 207 220 184 183 175 167 157 163 167 167 161 152 131 130 141 145 148 144 144 147 162 158 162 176 177 169 194 193
22 66 34 60 221 241 312 67 67 122 165 188 218 36 119 166 139 110 180 195 210 183 172 195 201 188 193 194 216 259 250 250 236 208 209 219 215 207 212 212 182 178 169 154 158 163 189 191 161 176 184 174 174 184 192 198 195 198 220 184 181 181 166 160 163 170 176 166 151 140 131 134 124 135 135 148 157 165 177 170 181 189 170 180 186 182
217 125 128 220 239 242 247 146 151 173 196 199 213 198 72 8 175 180 206 218 215 173 180 204 206 113 135 150 190 220 243 236 228 224 208 214 219 217 209 210 218 200 188 200 205 167 179 187 198 206 202 207 188 184 189 200 210 217 181 165 173 165 163 167 174 176 165 162 143 129 142 152 158 156 152 166 163 177 193 182 187 187 174 180 178 180
240 159 173 224 238 221 245 139 179 20 145 198 210 211 221 229 217 215 214 234 245 225 174 184 127 159 155 176 202 212 234 232 218 222 216 214 213 214 217 216 221 213 207 208 200 178 180 188 210 218 214 217 195 180 192 203 213 214 196 160 159 158 161 174 180 181 176 162 146 154 165 164 155 154 158 176 174 179 191 193 192 187 190 184 181 173
138 126 207 193 221 228 249 141 183 158 243 243 241 260 250 234 224 197 199 216 230 230 219 195 189 206 193 218 205 212 235 242 224 221 226 229 217 210 216 224 223 221 213 201 201 177 198 200 209 218 219 227 207 193 200 210 215 206 198 177 160 162 172 183 183 175 162 158 142 158 164 172 160 172 164 170 179 201 199 187 187 192 190 190 184 186
128 211 165 154 217 220 221 202 143 195 219 208 203 221 226 232 227 223 209 206 211 219 213 205 218 217 222 226 218 209 228 241 230 224 231 232 234 229 228 231 231 225 225 209 181 193 216 222 218 225 227 236 214 210 209 216 217 204 200 175 169 166 177 180 169 164 162 166 168 158 163 174 163 176 167 161 172 183 210 218 200 191 180 185 202 212
199 206 182 194 209 229 232 201 172 208 230 241 225 202 214 215 201 210 227 231 230 223 196 189 222 219 207 215 212 218 225 232 238 229 234 234 233 232 235 243 246 239 227 186 184 197 210 222 223 230 238 243 227 223 222 224 216 201 197 186 178 177 181 170 168 166 160 165 183 173 168 165 160 169 166 165 166 180 187 185 210 216 213 201 196 206